Regional Weather Roundup
Issued by NWS Green Bay, WI

Home | Current Version | Previous Version | Graphics & Text | Print | Product List | Glossary Off
Versions: 1 2 3 4 5 6 7 8 9 10 11 12 13 14 15 16 17 18 19 20 21 22 23 24 25 26 27 28 29 30 31 32 33 34 35 36 37 38 39 40 41 42 43 44 45 46 47 48 49 50

076
ASUS43 KGRB 142200
RWRGRB

NORTH-CENTRAL AND NORTHEAST WISCONSIN REGIONAL WEATHER ROUNDUP
NATIONAL WEATHER SERVICE GREEN BAY WI
400 PM CST THU DEC 14 2017

WIZ005-009-010>012-018-019-142300-
NORTH CENTRAL WISCONSIN

CITY           SKY/WX    TMP DP  RH WIND       PRES   REMARKS
IRONWOOD       FLURRIES  17  11  77 W6        29.93  WCI   9
MANITOWISH WTR NOT AVBL
ARBOR VITAE    NOT AVBL
EAGLE RIVER    LGT SNOW  15  10  81 W3        29.89F
LAND O LAKES   FLURRIES  15  10  78 SW3       29.91F
RHINELANDER    LGT SNOW  17  14  88 CALM      29.91S FOG
PHILLIPS       LGT SNOW  18  16  91 SW6       29.91S WCI  10
ANTIGO         NOT AVBL
TOMAHAWK       LGT SNOW  18  14  83 W3        29.93S
MERRILL        FLURRIES  20  15  82 W7        29.95S
$$

WIZ013-073-142300-
NORTHEAST WISCONSIN

CITY           SKY/WX    TMP DP  RH WIND       PRES   REMARKS
IRON MOUNTAIN  MOCLDY    18   9  68 W9        29.92R WCI   7
MARINETTE      FLURRIES  21  13  71 VRB3      29.99R
$$

WIZ017-030-035>037-045-142300-
CENTRAL WISCONSIN

CITY           SKY/WX    TMP DP  RH WIND       PRES   REMARKS
MEDFORD        NOT AVBL
WAUSAU         CLOUDY    19  14  81 W10       29.94F WCI   7
MOSINEE        CLOUDY    19  16  86 SW7       29.97S
MARSHFIELD     CLOUDY    20  14  77 SW7       29.95F
WISC RAPIDS    CLOUDY    23  12  62 W5        30.00F
STEVENS POINT  NOT AVBL
WAUPACA        MOCLDY    24  15  66 SW7       30.01S
SHAWANO        FLURRIES  24  16  70 W5        29.99R
CLINTONVILLE   NOT AVBL
WAUTOMA        CLOUDY    23  13  65 W6        30.01S
$$

WIZ038-039-048-051-142300-
FOX VALLEY

CITY           SKY/WX    TMP DP  RH WIND       PRES   REMARKS
NWS GREEN BAY  CLOUDY    20  11  68 SW7       30.01R
APPLETON       NOT AVBL
OSHKOSH        MOCLDY    19  11  70 S6        30.00F
FOND DU LAC    CLEAR     21  10  62 SW5       30.01F
$$

WIZ022-050-052-142300-
EAST CENTRAL WISCONSIN

CITY           SKY/WX    TMP DP  RH WIND       PRES   REMARKS
EPHRAIM        MOCLDY    19  10  68 CALM      29.96S
WASHINGTON ISL NOT AVBL
STURGEON BAY   FLURRIES  20  12  71 SW7       29.99S
MANITOWOC      CLEAR     19  10  68 W5        30.02S
SHEBOYGAN      CLEAR     17  10  74 W6        30.02R WCI   9
$$

LMZ563-521-522-541>543-142300-
LAKESHORE

STATION/POSITION TIME  TEMP    WIND        PRES    VSBY  WAVE
                       AIR SEA DIR/SP/G                  HT/PER
                 (UTC) (F)     (DEG/KT/KT) (MB)    (MI)  (FT/S)
SISTER BAY LKSHO 2120   25     310/ 10/ 11   N/A
$$




USA.gov is the U.S. government's official web portal to all federal, state and local government web resources and services.